Regional Weather Roundup
Issued by NWS

Home | Current Version | Previous Version | Graphics & Text | Print | Product List | Glossary On
Versions: 1 2 3 4 5 6 7 8 9 10 11 12 13 14 15 16 17 18 19 20 21 22 23 24 25 26 27 28 29 30 31 32 33 34 35 36 37 38 39 40 41 42 43 44 45 46 47 48 49 50
114
ASUS45 KPSR 232310
RWRAZ

ARIZONA HOURLY REGIONAL WEATHER ROUNDUP
NATIONAL WEATHER SERVICE PHOENIX AZ
400 PM MST SAT JUL 23 2016

NOTE: FAIR INDICATES FEW OR NO CLOUDS BELOW 12,000 FEET WITH NO
SIGNIFICANT WEATHER AND/OR OBSTRUCTIONS TO VISIBILITY.

AZZ001>003-036-240000-
NORTHWEST ARIZONA

CITY           SKY/WX    TMP DP  RH WIND       PRES   REMARKS
BULLHEAD CITY  SUNNY    111  54  15 S13G23    29.69F HX 109
KINGMAN        SUNNY    104  43  12 SW17G24   29.96F
$$

AZZ004>008-015-016-018-240000-
NORTH CENTRAL ARIZONA

CITY           SKY/WX    TMP DP  RH WIND       PRES   REMARKS
GRAND CANYON   SUNNY     94  40  15 SW12G23   30.21F
WILLIAMS       MOSUNNY   90  41  18 W12G20    30.30F
PRESCOTT       MOSUNNY   94  44  17 SE8       30.09F
FLAGSTAFF      PTSUNNY   86  42  21 S7        30.26F
PAYSON         MOSUNNY   97  45  16 W9G18     30.11F
PAGE           MOSUNNY  101  38  11 VRB3      29.95F
$$

AZZ009>014-017-240000-
NORTHEAST ARIZONA

CITY           SKY/WX    TMP DP  RH WIND       PRES   REMARKS
WINSLOW        MOSUNNY   99  42  14 NW8       30.04F
SAINT JOHNS    PTSUNNY   94  39  14 VRB5      30.10F
WINDOW ROCK    LGT RAIN  86  48  26 N8        30.20F
SHOW LOW       MOSUNNY   90  41  18 NW12      30.20F
$$

AZZ023-240000-
GREATER PHOENIX AREA

CITY           SKY/WX    TMP DP  RH WIND       PRES   REMARKS
PHOENIX        MOSUNNY  110  55  16 W15       29.73F HX 109
BUCKEYE        SUNNY    109  52  15 W10G16    29.76F HX 107
GLENDALE       MOSUNNY  111  55  16 SW7G17    29.75F HX 110
LUKE AFB       SUNNY    110  53  15 SW5       29.73F HX 108
DEER VALLEY    SUNNY    109  53  15 W10G16    29.76F HX 107
SCOTTSDALE     SUNNY    109  54  16 VRB5      29.78F HX 107
MESA-FALCON    MOSUNNY  N/A N/A N/A SW9       29.74F
MESA-GATEWAY   MOSUNNY  108  55  18 NW8G17    29.77F HX 106
CHANDLER       SUNNY    109  55  17 W9        29.75F HX 108
$$

AZZ027-028-240000-
SOUTHWEST MARICOPA COUNTY AND PINAL COUNTY

CITY           SKY/WX    TMP DP  RH WIND       PRES   REMARKS
CASA GRANDE    SUNNY    109  55  17 W12G22    29.81F HX 108
GILA BEND      FAIR     110  51  14 W10       29.73F HX 108
$$

AZZ503-504-507>509-240000-
SOUTHEAST ARIZONA

CITY           SKY/WX    TMP DP  RH WIND       PRES   REMARKS
TUCSON         SUNNY    105  52  17 N8G20     29.89F HX 103
DAVIS-MONTHAN  SUNNY    103  54  19 W10       29.87F HX 101
RYAN FIELD     SUNNY    104  54  18 NW8       29.88F HX 102
NOGALES        MOSUNNY   97  54  23 W6        29.98F THUNDER
SIERRA VISTA   MOSUNNY   94  51  23 VRB2      30.06F
DOUGLAS        SUNNY     97  52  21 CALM      29.99F
SAFFORD        SUNNY    105  48  14 NW15G22   29.85F HX 101
$$

AZZ020-021-025-026-031-240000-
SOUTHWEST ARIZONA

CITY           SKY/WX    TMP DP  RH WIND       PRES   REMARKS
YUMA           SUNNY    109  59  19 S16       29.72F HX 110
$$

CAZ031-033-041-043-047-048-061-240000-
SOUTHERN CALIFORNIA

CITY           SKY/WX    TMP DP  RH WIND       PRES   REMARKS
DOWNTOWN L.A.  SUNNY     86  64  47 MISG      29.79S
L.A. AIRPORT   PTSUNNY   79  68  69 W10       29.81S
SAN DIEGO      MOSUNNY   71  65  81 SW14      29.85S
BURBANK        MOSUNNY   88  58  36 S13       29.81S
ONTARIO        MOSUNNY  100  53  20 W16G23    29.79S
RIVERSIDE      SUNNY    100  57  23 W17G24    29.76F
PALM SPRINGS   SUNNY    108  61  21 E7        29.73F HX 110
EL CENTRO NAS  SUNNY    112  56  16 SE9       29.67F HX 111
IMPERIAL       SUNNY    116  58  15 SE17      29.65F HX 116
BLYTHE         SUNNY    112  57  16 S17       29.71F HX 112
NEEDLES        PTSUNNY  114  53  13 SW14      29.72F HX 112
$$

NVZ020-UTZ003-240000-
SOUTHERN NEVADA-UTAH

CITY           SKY/WX    TMP DP  RH WIND       PRES   REMARKS
LAS VEGAS      MOSUNNY  112  22   4 S9        29.74F HX 103
SALT LAKE CITY MOSUNNY   93  19   7 NW12      30.05F
$$

NMZ009-TXZ055-240000-
NEW MEXICO-WEST TEXAS

CITY           SKY/WX    TMP DP  RH WIND       PRES   REMARKS
ALBUQUERQUE    PTSUNNY  100  39  12 NW8       30.02F
EL PASO        MOSUNNY  103  39  11 S7        29.93F
$$


........................KEY........................
SKY/WX - SKY CONDITION/WEATHER
TMP    - TEMPERATURE IN FAHRENHEIT
DP     - DEW POINT IN FAHRENHEIT
RH     - RELATIVE HUMIDITY IN PERCENT
WIND   - DIRECTION AND SPEED IN MILES PER HOUR (MPH)
VRB    - VARIABLE WIND DIRECTION
PRES   - MEAN SEA LEVEL PRESSURE IN INCHES OF MERCURY
         F - FALLING PRESSURE   R - RISING PRESSURE
         S - STEADY PRESSURE
VSB    - VISIBILITY IN MILES
HX     - HEAT INDEX IN FAHRENHEIT
WCI    - WIND CHILL INDEX IN FAHRENHEIT
TC     - TEMPERATURE IN CELSIUS WHICH IS ALSO KNOWN AS
         TEMPERATURE IN CENTIGRADE
AFB    - AIR FORCE BASE
         LUKE AFB IS LUKE AIR FORCE BASE
         DAVIS-MONTHAN IS DAVIS-MONTHAN AIR FORCE BASE
NAS    - NAVAL AIR STATION
         EL CENTRO NAS IS EL CENTRO NAVAL AIR STATION
N/A    - NOT AVAILABLE





USA.gov is the U.S. government's official web portal to all federal, state and local government web resources and services.